Location: Kelshall
(52.0000°N, 0.0500°W)
Time: 03:43:21
(UTC+00:00)

NOSS 3-1 (A) - Pass Details

Date: 18 September 2020
Orbit: 745 x 1467 km, 63.4° (Epoch: 08 October)

Event Time Altitude Azimuth Distance (km) Brightness Sun altitude
Rises 18:53:44 0° 241° (WSW) 3,331 7.1 -7.9°
Reaches altitude 10° 18:56:03 10° 245° (WSW) 2,468 6.5 -8.3°
Maximum altitude 19:01:41 59° 325° (NW) 1,082 4.1 -9.1°
Drops below altitude 10° 19:08:25 10° 45° (NE) 2,934 5.7 -10.1°
Sets 19:11:24 0° 49° (NE) 4,012 6.4 -10.6°
